Regional Weather Roundup
Issued by NWS

Home | Current Version | Previous Version | Text Only | Print | Product List | Glossary Off
Versions: 1 2 3 4 5 6 7 8 9 10 11 12 13 14 15 16 17 18 19 20 21 22 23 24 25 26 27 28 29 30 31 32 33 34 35 36 37 38 39 40 41 42 43 44 45 46 47 48 49 50

000
ASUS43 KBIS 301720
RWRND

NORTH DAKOTA REGIONAL WEATHER ROUNDUP
NATIONAL WEATHER SERVICE BISMARCK ND
1200 PM CDT WED JUL 30 2014

NOTE: "FAIR" INDICATES FEW OR NO CLOUDS BELOW 12,000 FEET WITH NO
SIGNIFICANT WEATHER AND/OR OBSTRUCTIONS TO VISIBILITY.


NDZ001>003-009>011-017-301800-
NORTHWEST NORTH DAKOTA

CITY           SKY/WX    TMP DP  RH WIND       PRES   REMARKS
WILLISTON      FAIR      79  51  37 NE12      30.19S
MINOT          FAIR      75  60  59 NE5       30.16S
MINOT AFB      FAIR      75  64  68 CALM      30.16S
$$

NDZ018>021-031>035-040>046-301800-
SOUTHWEST NORTH DAKOTA

CITY           SKY/WX    TMP DP  RH WIND       PRES   REMARKS
BISMARCK       FAIR      80  56  43 VRB3      30.16F
DICKINSON      FAIR      76  54  46 CALM      30.18S
GARRISON         N/A     74  59  59 S3        30.17S
HETTINGER ARPT FAIR      76  55  48 NE8       30.20R
$$

NDZ004>008-012>016-024-026-027-054-301800-
NORTHEAST NORTH DAKOTA

CITY           SKY/WX    TMP DP  RH WIND       PRES   REMARKS
GRAND FORKS    FAIR      77  57  50 N3        30.11F
GRND FRKS AFB  FAIR      76  58  53 NW8       30.12F
DEVILS LAKE    FAIR      75  55  50 NW7       30.13F
$$

NDZ022-023-025-028>030-036>039-047>053-301800-
SOUTHEAST NORTH DAKOTA

CITY           SKY/WX    TMP DP  RH WIND       PRES   REMARKS
FARGO          FAIR      77  55  46 NW6       30.12F
JAMESTOWN      FAIR      75  53  46 NW6       30.15F
$$




USA.gov is the U.S. government's official web portal to all federal, state and local government web resources and services.